SCP
0 0 0 0 0 0 0 0 0 0 0 0 0 0 0 0 0 0 0 0 0 0 0 0 0 0 0 0 0 0 0 0 0 0 0 0 0 0 0 0 0 0 0
0 0 0 0 0 0 0 0 0 0 0 0 0 0 0 0 0 0 0 0 0 0 0 0 0 0 0 0 0 0 0 0 0 0 0 0 0 0 0 0 0 0 0
0 0 0 0 0 0 0 0 0 0 0 0 0 0 0 0 0 0 0 0 0 0 0 0 0 0 0 0 0 0 0 0 0 0 0 0 0 0 0 0 0 0 0
0 0 0 0 0 0 0 0 0 0 0 0 0 0 0 0 0 0 0 0 0 0 0 0 0 0 0 0 0 0 0 0 0 0 0 0 0 0 0 0 0 0 0
0 0 0 0 0 0 0 0 0 0 0 0 0 0 0 0 0 0 0 0 0 0 0 0 0 0 0 0 0 0 0 0 0 0 0 0 0 0 0 0 0 0 0
0 0 0 0 0 0 0 0 0 0 0 0 0 0 0 0 0 0 0 0 0 0 0 0 0 0 0 0 0 0 0 0 0 0 0 0 0 0 0 0 0 0 0
0 0 0 0 0 0 0 0 0 0 0 0 0 0 0 0 0 0 0 0 0 0 0 0 0 0 0 0 0 0 0 0 0 0 0 0 0 0 0 0 0 0 0
0 0 0 0 0 0 0 0 0 0 0 0 0 -0 -0 -0 0 0 0 0 0 0 0 0 0 0 0 0 0 0 0 0 0 0 0 0 0 0 0 0 0 0 0
0 0 0 0 0 0 0 0 0 0 0 0 0 0 0 0 0 0 0 0 0 0 0 0 0 0 0 0 0 0 0 0 0 0 0 0 0 0 0 0 0 0 0
0 0 0 0 0 0 0 0 0 0 0 0 0 0 0 0 -0 0 0 0 0 0 0 0 0 0 0 0 0 0 0 0 0 0 0 0 0 0 0 0 0 0 0
0 0 0 0 0 0 0 0 0 0 0 0 0 0 0 0 0 0 0 0 0 0 0 0 0 0 0 0 0 0 0 0 0 0 0 0 0 0 0 0 0 0 0
0 0 0 0 0 0 0 0 0 0 0 0 0 0 0 0 0 0 0 0 0 0 0 0 0 0 0 0 0 0 0 0 0 0 0 0 0 0 0 0 0 0 0
0 0 0 0 0 0 0 0 0 0 0 0 0 0 0 0 0 0 0 -0 -0 -0 -0 -0 0 0 0 0 0 0 0 0 0 0 0 0 0 0 0 0 0 0 0
0 0 0 0 0 0 0 0 0 0 0 0 0 0 0 0 0 0 0 0 -0 -0 -0 -0 0 0 0 0 0 0 0 0 0 0 0 0 0 0 0 0 0 0 0
0 0 0 0 0 0 0 0 0 0 0 0 0 0 0 0 0 0 0 0 0 -0 -0 0 -0 -0 0 0 0 0 0 0 0 0 0 0 0 0 0 0 0 0 0
0 0 0 0 0 0 0 0 0 0 0 0 0 0 0 0 0 0 0 0 0 0 0 0 0 0 0 0 0 0 0 0 0 0 0 0 0 0 0 0 0 0 0
0 0 0 0 0 0 0 0 0 -0 -0 -0 -0 -0 -0 0 0 0 0 0 0 0 0 0 0 -0 -0 -0 -0 0 0 0 0 0 0 0 0 0 0 0 0 0 0
0 0 0 0 0 0 0 0 0 -0 -0 -0 -0 -0 -0 -0 -0 -0 0 0 0 0 0 0 0 0 -0 -0 -0 -0 0 0 0 0 0 0 0 0 0 0 0 0 0
0 0 0 0 0 0 0 0 0 0 0 0 0 0 0 0 0 0 0 0 0 0 0 0 0 0 0 0 -0 -0 0 0 0 0 0 0 0 0 0 0 0 0 0
0 0 0 0 0 0 0 0 0 0 0 0 0 0 0 0 0 0 0 0 0 -0 -0 0 0 -0 -0 0 0 -0 -0 -0 -0 0 0 0 0 0 0 0 0 0 0
0 0 0 0 0 0 0 0 0 0 0 0 0 0 0 0 0 0 0 0 0 0 0 0 0 -0 -0 -0 0 0 0 -0 -0 -0 0 0 0 0 0 0 0 0 0
0 0 0 0 0 0 0 0 0 0 0 0 0 0 0 0 0 0 0 0 0 0 0 0 0 0 0 0 0 0 0 0 -0 0 -0 -0 0 0 0 0 0 0 0
0 0 0 0 0 0 -0 0 0 0 0 0 0 0 0 0 0 0 0 0 0 0 0 0 0 0 0 0 0 0 0 0 0 0 0 -0 0 0 0 0 0 0 0
0 0 0 0 0 0 0 0 0 0 0 0 0 0 0 0 0 0 0 0 0 0 0 0 0 0 0 0 0 0 0 0 0 0 0 0 0 0 -0 -0 0 0 0
0 0 0 0 0 0 0 0 0 0 0 0 0 0 0 0 0 0 0 0 0 0 0 0 0 0 0 0 0 0 0 0 0 0 0 0 0 0 0 -0 -0 0 0
0 0 0 0 0 0 0 0 0 0 0 0 0 0 0 0 -0 0 0 0 0 0 0 0 0 0 0 0 0 0 0 0 0 0 0 0 0 0 0 0 -0 -0 0
Wind_Speed_500mb
34 31 33 32 32 30 30 33 35 28 27 25 25 25 26 25 25 24 23 21 19 18 18 19 19 19 18 19 18 17 17 17 18 21 20 19 22 30 36 37 36 34 34
31 31 33 34 36 25 31 33 36 33 30 28 27 29 30 31 30 28 26 25 24 22 22 21 21 21 21 21 15 19 21 15 16 22 25 22 23 19 22 27 32 35 37
17 21 20 23 30 33 32 34 38 32 39 32 27 29 31 35 36 35 33 31 29 27 26 25 24 24 22 18 16 22 30 28 22 17 20 23 23 16 18 23 25 30 34
21 24 30 32 31 28 21 28 32 31 31 30 32 33 32 34 35 38 40 38 36 34 31 30 29 26 25 23 19 23 33 30 33 25 18 21 23 21 21 22 24 25 26
19 18 12 15 11 20 23 24 25 31 32 33 33 35 37 38 37 38 39 40 42 42 39 36 35 33 31 29 25 21 33 36 36 33 21 20 21 25 25 23 24 26 26
19 19 19 21 18 17 16 20 29 34 37 34 36 44 45 43 46 47 44 43 44 46 45 45 44 41 37 35 32 30 29 39 37 32 39 33 25 24 25 26 26 27 28
18 22 25 27 30 28 26 26 24 28 30 35 42 45 49 54 49 53 49 42 40 41 44 47 48 48 45 43 41 39 45 34 37 38 40 47 32 28 26 26 25 27 28
9 12 15 22 25 27 30 31 34 35 40 38 38 45 36 49 45 32 26 26 29 28 28 38 47 50 50 48 46 46 46 49 43 37 43 40 44 40 30 27 26 27 29
6 5 6 8 12 16 20 24 27 32 32 31 25 21 18 20 52 47 49 52 52 54 46 40 34 34 42 51 52 50 49 50 54 54 47 43 45 48 48 33 30 30 31
17 16 16 15 16 16 16 18 19 19 21 27 25 22 20 27 25 33 39 60 59 57 58 58 56 49 39 36 40 48 51 53 55 56 57 59 56 47 53 54 38 34 33
21 22 22 23 24 27 28 26 26 27 27 27 28 30 30 30 31 38 55 65 67 58 52 58 65 67 63 60 56 50 46 47 51 56 59 60 62 61 56 56 52 41 38
18 19 22 24 25 25 27 29 30 29 29 27 28 29 30 32 37 40 54 70 76 74 67 59 49 49 54 64 65 63 61 59 57 53 54 58 62 64 66 62 59 53 45
19 22 23 24 26 28 29 31 33 34 35 37 36 35 33 32 34 38 43 53 67 78 79 66 57 41 39 40 45 53 61 64 65 64 61 59 59 63 67 70 66 64 56
23 24 26 27 29 30 31 34 38 40 41 42 41 42 44 43 43 44 48 51 65 65 75 49 68 47 43 37 37 40 46 51 58 63 66 67 63 63 67 70 72 71 69
24 27 29 32 34 36 38 39 42 45 47 50 51 52 53 51 51 52 52 52 49 44 70 54 64 51 63 61 56 55 52 51 58 63 65 65 68 66 65 69 72 74 73
27 28 29 32 36 41 45 48 53 56 60 61 62 62 61 60 60 59 59 60 58 61 65 72 85 86 80 75 67 61 59 58 53 56 64 70 70 69 69 68 71 72 73
32 35 38 41 45 49 54 59 64 70 73 74 73 74 73 68 66 64 64 65 68 69 82 97 95 93 91 87 81 74 69 63 63 57 55 63 71 76 74 71 72 73 75
36 38 42 47 51 54 59 66 71 76 79 81 82 81 79 77 79 79 74 71 71 72 76 91 96 96 96 93 91 86 81 78 72 64 61 58 61 70 78 79 75 75 77
41 44 47 52 56 61 65 68 72 73 74 74 76 79 81 82 84 81 77 80 82 76 77 78 94 88 94 94 95 92 88 86 83 75 69 68 64 63 69 77 85 81 79
46 47 53 56 60 65 68 70 71 73 74 76 77 79 81 81 80 80 81 78 68 66 67 71 81 77 63 77 82 84 89 85 88 82 78 75 72 70 67 69 81 88 87
49 52 57 59 63 65 67 68 69 72 75 78 79 81 80 79 77 73 69 72 65 66 69 68 71 71 66 57 55 60 71 71 82 84 85 85 84 81 78 70 71 76 86
55 57 61 64 66 66 67 68 71 75 76 80 84 83 79 76 72 71 66 59 56 61 72 75 76 72 67 59 62 66 71 72 81 58 60 75 67 76 75 73 66 65 72
59 61 64 65 66 67 68 70 72 76 77 77 78 78 76 70 66 65 65 56 54 53 54 62 77 80 81 64 60 75 80 87 100 87 62 78 66 87 93 91 81 75 71
60 63 65 65 66 67 69 71 72 74 76 75 72 69 66 65 64 60 60 63 60 57 56 58 63 69 68 63 59 62 68 73 82 85 69 95 88 98 85 94 97 83 78
63 65 66 66 67 65 66 69 73 73 71 70 67 63 63 66 63 54 61 71 75 74 70 65 64 64 62 59 58 61 72 75 86 75 58 76 93 84 78 83 86 93 85
72 67 66 64 64 65 64 66 67 65 67 67 67 69 68 64 60 61 65 70 77 78 76 75 74 74 73 67 57 56 61 70 75 82 67 75 83 78 80 71 78 84 86
Wind_Direction_500mb
268 277 282 283 283 295 299 308 315 307 290 284 276 271 271 272 274 276 278 280 281 284 287 290 295 301 304 306 302 305 309 310 298 290 289 278 259 252 251 256 250 236 229
260 273 281 284 280 294 297 303 314 306 290 285 284 280 275 271 271 270 270 272 276 279 283 287 289 294 300 303 292 291 308 312 309 304 295 283 270 261 253 249 249 251 239
257 261 274 279 267 280 293 292 307 307 308 287 284 284 282 279 277 274 270 268 267 269 270 275 280 283 285 280 269 273 286 303 309 303 291 282 280 277 262 257 255 254 252
256 258 254 258 261 258 274 297 297 298 306 302 298 295 293 287 282 278 275 274 269 267 267 270 272 274 275 273 264 272 273 280 302 306 297 286 287 285 269 261 259 256 252
288 287 297 286 301 271 265 275 272 287 290 286 286 292 301 301 293 284 280 277 274 274 272 267 266 266 265 263 255 242 269 278 290 295 299 289 283 282 287 277 271 267 265
324 341 318 332 321 318 313 298 284 292 286 287 290 288 295 302 302 299 289 280 277 275 272 270 269 268 265 261 254 233 231 271 281 275 292 302 283 276 273 274 275 276 274
311 320 320 319 315 314 318 319 322 320 319 314 309 300 295 292 295 297 293 285 278 271 265 266 269 270 269 267 261 251 239 243 268 276 285 292 295 283 276 270 268 268 270
313 306 302 304 308 305 301 299 300 304 305 310 316 317 317 304 301 284 282 292 291 298 292 270 262 261 263 263 262 260 254 242 237 256 278 280 289 295 281 275 274 274 273
44 4 341 324 305 299 295 298 304 302 303 300 309 319 321 300 305 295 289 290 286 290 291 291 288 273 263 258 257 258 259 257 251 247 242 259 277 283 287 273 270 270 270
44 36 26 18 10 5 350 344 337 330 322 311 305 292 288 296 311 312 301 298 297 293 291 288 284 278 276 275 265 258 255 255 257 258 255 249 251 262 275 279 268 267 267
38 33 29 26 19 18 18 14 8 1 347 339 335 325 308 298 296 304 308 303 302 300 292 286 283 279 276 273 271 271 271 264 259 257 258 258 257 252 251 265 267 264 269
31 27 20 14 13 9 4 3 3 358 357 352 348 342 335 330 315 303 298 300 303 305 304 301 295 289 282 276 273 270 268 267 266 265 262 259 257 256 253 249 257 259 262
19 17 13 7 2 2 358 354 349 347 344 341 339 333 330 325 320 314 306 305 305 307 308 305 306 305 298 289 278 272 267 265 264 263 264 263 259 255 254 252 248 251 257
7 6 359 355 352 351 349 345 343 339 336 331 325 320 316 314 310 309 309 311 308 304 306 310 308 306 310 306 297 290 278 269 262 259 258 259 260 258 254 252 251 247 254
357 353 348 347 345 343 341 339 336 332 328 325 321 317 312 307 300 297 295 296 298 301 299 296 298 303 302 301 300 296 288 281 274 265 257 254 256 258 256 251 251 252 253
341 336 333 332 332 332 332 332 330 327 325 322 320 315 310 306 300 295 291 287 284 283 282 285 289 292 295 294 293 292 291 288 281 275 269 258 252 252 255 255 252 252 253
331 329 329 329 329 329 330 329 328 326 324 321 319 317 314 310 305 299 294 289 285 282 282 283 285 288 288 289 289 288 287 285 285 282 277 272 262 252 249 253 253 252 253
322 322 324 326 327 327 327 326 325 324 322 320 319 317 315 312 309 307 302 295 289 286 286 287 286 285 285 286 285 285 284 283 281 279 280 275 272 264 254 248 251 253 252
319 320 322 323 324 324 324 323 323 321 319 316 314 312 311 309 307 306 303 300 299 295 290 289 288 289 284 286 288 285 283 281 279 278 276 274 271 267 263 255 248 248 252
316 316 319 320 321 321 322 322 322 319 317 315 313 310 308 306 304 302 299 296 295 294 293 289 288 290 289 288 286 289 289 285 283 279 274 272 270 269 263 262 255 250 247
313 314 317 317 319 320 322 322 320 318 317 315 313 311 309 307 305 302 299 296 293 288 289 290 286 286 285 283 284 287 288 293 289 286 282 274 272 270 269 264 262 257 253
310 310 314 316 318 320 322 322 321 319 317 315 314 314 313 312 310 307 303 295 290 288 282 279 282 281 282 281 280 280 281 286 289 285 287 285 277 270 266 264 263 262 258
306 309 312 314 317 320 322 323 321 318 317 316 314 314 315 315 313 310 306 300 294 289 282 282 279 278 279 280 280 281 275 275 275 275 277 277 277 278 274 269 266 265 262
303 305 309 313 316 321 322 321 319 318 317 315 315 318 318 318 319 310 308 304 304 301 295 291 289 291 291 295 292 295 297 293 290 285 278 277 277 274 273 276 271 265 264
301 303 307 311 315 318 319 320 321 318 315 314 319 323 324 323 319 306 306 304 300 296 296 292 285 282 281 280 278 280 277 279 278 280 283 274 274 278 274 271 271 272 261
301 302 306 310 314 317 320 320 319 317 317 319 324 325 323 315 307 302 298 298 297 299 302 302 300 300 299 294 283 272 271 268 273 279 279 270 275 271 279 275 271 270 272
Wind_Speed_850mb
34 31 33 32 32 30 30 33 35 28 27 25 25 25 26 25 25 24 23 21 19 18 18 19 19 19 18 19 18 17 17 17 18 21 20 19 22 30 36 37 36 34 34
31 31 33 34 36 25 31 33 36 33 30 28 27 29 30 31 30 28 26 25 24 22 22 21 21 21 21 21 15 19 21 15 16 22 25 22 23 19 22 27 32 35 37
17 21 20 23 30 33 32 34 38 32 39 32 27 29 31 35 36 35 33 31 29 27 26 25 24 24 22 18 16 22 30 28 22 17 20 23 23 16 18 23 25 30 34
21 24 30 32 31 28 21 28 32 31 31 30 32 33 32 34 35 38 40 38 36 34 31 30 29 26 25 23 19 23 33 30 33 25 18 21 23 21 21 22 24 25 26
19 18 12 15 11 20 23 24 25 31 32 33 33 35 37 38 37 38 39 40 42 42 39 36 35 33 31 29 25 21 33 36 36 33 21 20 21 25 25 23 24 26 26
19 19 19 21 18 17 16 20 29 34 37 34 36 44 45 43 46 47 44 43 44 46 45 45 44 41 37 35 32 30 29 39 37 32 39 33 25 24 25 26 26 27 28
18 22 25 27 30 28 26 26 24 28 30 35 42 45 49 54 49 53 49 42 40 41 44 47 48 48 45 43 41 39 45 34 37 38 40 47 32 28 26 26 25 27 28
9 12 15 22 25 27 30 31 34 35 40 38 38 45 36 49 45 32 26 26 29 28 28 38 47 50 50 48 46 46 46 49 43 37 43 40 44 40 30 27 26 27 29
6 5 6 8 12 16 20 24 27 32 32 31 25 21 18 20 52 47 49 52 52 54 46 40 34 34 42 51 52 50 49 50 54 54 47 43 45 48 48 33 30 30 31
17 16 16 15 16 16 16 18 19 19 21 27 25 22 20 27 25 33 39 60 59 57 58 58 56 49 39 36 40 48 51 53 55 56 57 59 56 47 53 54 38 34 33
21 22 22 23 24 27 28 26 26 27 27 27 28 30 30 30 31 38 55 65 67 58 52 58 65 67 63 60 56 50 46 47 51 56 59 60 62 61 56 56 52 41 38
18 19 22 24 25 25 27 29 30 29 29 27 28 29 30 32 37 40 54 70 76 74 67 59 49 49 54 64 65 63 61 59 57 53 54 58 62 64 66 62 59 53 45
19 22 23 24 26 28 29 31 33 34 35 37 36 35 33 32 34 38 43 53 67 78 79 66 57 41 39 40 45 53 61 64 65 64 61 59 59 63 67 70 66 64 56
23 24 26 27 29 30 31 34 38 40 41 42 41 42 44 43 43 44 48 51 65 65 75 49 68 47 43 37 37 40 46 51 58 63 66 67 63 63 67 70 72 71 69
24 27 29 32 34 36 38 39 42 45 47 50 51 52 53 51 51 52 52 52 49 44 70 54 64 51 63 61 56 55 52 51 58 63 65 65 68 66 65 69 72 74 73
27 28 29 32 36 41 45 48 53 56 60 61 62 62 61 60 60 59 59 60 58 61 65 72 85 86 80 75 67 61 59 58 53 56 64 70 70 69 69 68 71 72 73
32 35 38 41 45 49 54 59 64 70 73 74 73 74 73 68 66 64 64 65 68 69 82 97 95 93 91 87 81 74 69 63 63 57 55 63 71 76 74 71 72 73 75
36 38 42 47 51 54 59 66 71 76 79 81 82 81 79 77 79 79 74 71 71 72 76 91 96 96 96 93 91 86 81 78 72 64 61 58 61 70 78 79 75 75 77
41 44 47 52 56 61 65 68 72 73 74 74 76 79 81 82 84 81 77 80 82 76 77 78 94 88 94 94 95 92 88 86 83 75 69 68 64 63 69 77 85 81 79
46 47 53 56 60 65 68 70 71 73 74 76 77 79 81 81 80 80 81 78 68 66 67 71 81 77 63 77 82 84 89 85 88 82 78 75 72 70 67 69 81 88 87
49 52 57 59 63 65 67 68 69 72 75 78 79 81 80 79 77 73 69 72 65 66 69 68 71 71 66 57 55 60 71 71 82 84 85 85 84 81 78 70 71 76 86
55 57 61 64 66 66 67 68 71 75 76 80 84 83 79 76 72 71 66 59 56 61 72 75 76 72 67 59 62 66 71 72 81 58 60 75 67 76 75 73 66 65 72
59 61 64 65 66 67 68 70 72 76 77 77 78 78 76 70 66 65 65 56 54 53 54 62 77 80 81 64 60 75 80 87 100 87 62 78 66 87 93 91 81 75 71
60 63 65 65 66 67 69 71 72 74 76 75 72 69 66 65 64 60 60 63 60 57 56 58 63 69 68 63 59 62 68 73 82 85 69 95 88 98 85 94 97 83 78
63 65 66 66 67 65 66 69 73 73 71 70 67 63 63 66 63 54 61 71 75 74 70 65 64 64 62 59 58 61 72 75 86 75 58 76 93 84 78 83 86 93 85
72 67 66 64 64 65 64 66 67 65 67 67 67 69 68 64 60 61 65 70 77 78 76 75 74 74 73 67 57 56 61 70 75 82 67 75 83 78 80 71 78 84 86
Wind_Direction_850mb
268 277 282 283 283 295 299 308 315 307 290 284 276 271 271 272 274 276 278 280 281 284 287 290 295 301 304 306 302 305 309 310 298 290 289 278 259 252 251 256 250 236 229
260 273 281 284 280 294 297 303 314 306 290 285 284 280 275 271 271 270 270 272 276 279 283 287 289 294 300 303 292 291 308 312 309 304 295 283 270 261 253 249 249 251 239
257 261 274 279 267 280 293 292 307 307 308 287 284 284 282 279 277 274 270 268 267 269 270 275 280 283 285 280 269 273 286 303 309 303 291 282 280 277 262 257 255 254 252
256 258 254 258 261 258 274 297 297 298 306 302 298 295 293 287 282 278 275 274 269 267 267 270 272 274 275 273 264 272 273 280 302 306 297 286 287 285 269 261 259 256 252
288 287 297 286 301 271 265 275 272 287 290 286 286 292 301 301 293 284 280 277 274 274 272 267 266 266 265 263 255 242 269 278 290 295 299 289 283 282 287 277 271 267 265
324 341 318 332 321 318 313 298 284 292 286 287 290 288 295 302 302 299 289 280 277 275 272 270 269 268 265 261 254 233 231 271 281 275 292 302 283 276 273 274 275 276 274
311 320 320 319 315 314 318 319 322 320 319 314 309 300 295 292 295 297 293 285 278 271 265 266 269 270 269 267 261 251 239 243 268 276 285 292 295 283 276 270 268 268 270
313 306 302 304 308 305 301 299 300 304 305 310 316 317 317 304 301 284 282 292 291 298 292 270 262 261 263 263 262 260 254 242 237 256 278 280 289 295 281 275 274 274 273
44 4 341 324 305 299 295 298 304 302 303 300 309 319 321 300 305 295 289 290 286 290 291 291 288 273 263 258 257 258 259 257 251 247 242 259 277 283 287 273 270 270 270
44 36 26 18 10 5 350 344 337 330 322 311 305 292 288 296 311 312 301 298 297 293 291 288 284 278 276 275 265 258 255 255 257 258 255 249 251 262 275 279 268 267 267
38 33 29 26 19 18 18 14 8 1 347 339 335 325 308 298 296 304 308 303 302 300 292 286 283 279 276 273 271 271 271 264 259 257 258 258 257 252 251 265 267 264 269
31 27 20 14 13 9 4 3 3 358 357 352 348 342 335 330 315 303 298 300 303 305 304 301 295 289 282 276 273 270 268 267 266 265 262 259 257 256 253 249 257 259 262
19 17 13 7 2 2 358 354 349 347 344 341 339 333 330 325 320 314 306 305 305 307 308 305 306 305 298 289 278 272 267 265 264 263 264 263 259 255 254 252 248 251 257
7 6 359 355 352 351 349 345 343 339 336 331 325 320 316 314 310 309 309 311 308 304 306 310 308 306 310 306 297 290 278 269 262 259 258 259 260 258 254 252 251 247 254
357 353 348 347 345 343 341 339 336 332 328 325 321 317 312 307 300 297 295 296 298 301 299 296 298 303 302 301 300 296 288 281 274 265 257 254 256 258 256 251 251 252 253
341 336 333 332 332 332 332 332 330 327 325 322 320 315 310 306 300 295 291 287 284 283 282 285 289 292 295 294 293 292 291 288 281 275 269 258 252 252 255 255 252 252 253
331 329 329 329 329 329 330 329 328 326 324 321 319 317 314 310 305 299 294 289 285 282 282 283 285 288 288 289 289 288 287 285 285 282 277 272 262 252 249 253 253 252 253
322 322 324 326 327 327 327 326 325 324 322 320 319 317 315 312 309 307 302 295 289 286 286 287 286 285 285 286 285 285 284 283 281 279 280 275 272 264 254 248 251 253 252
319 320 322 323 324 324 324 323 323 321 319 316 314 312 311 309 307 306 303 300 299 295 290 289 288 289 284 286 288 285 283 281 279 278 276 274 271 267 263 255 248 248 252
316 316 319 320 321 321 322 322 322 319 317 315 313 310 308 306 304 302 299 296 295 294 293 289 288 290 289 288 286 289 289 285 283 279 274 272 270 269 263 262 255 250 247
313 314 317 317 319 320 322 322 320 318 317 315 313 311 309 307 305 302 299 296 293 288 289 290 286 286 285 283 284 287 288 293 289 286 282 274 272 270 269 264 262 257 253
310 310 314 316 318 320 322 322 321 319 317 315 314 314 313 312 310 307 303 295 290 288 282 279 282 281 282 281 280 280 281 286 289 285 287 285 277 270 266 264 263 262 258
306 309 312 314 317 320 322 323 321 318 317 316 314 314 315 315 313 310 306 300 294 289 282 282 279 278 279 280 280 281 275 275 275 275 277 277 277 278 274 269 266 265 262
303 305 309 313 316 321 322 321 319 318 317 315 315 318 318 318 319 310 308 304 304 301 295 291 289 291 291 295 292 295 297 293 290 285 278 277 277 274 273 276 271 265 264
301 303 307 311 315 318 319 320 321 318 315 314 319 323 324 323 319 306 306 304 300 296 296 292 285 282 281 280 278 280 277 279 278 280 283 274 274 278 274 271 271 272 261
301 302 306 310 314 317 320 320 319 317 317 319 324 325 323 315 307 302 298 298 297 299 302 302 300 300 299 294 283 272 271 268 273 279 279 270 275 271 279 275 271 270 272